This is the latest recevied weather packets stored in our database for station/object KB9YVI-11. If no packets are shown the sender has not sent any weather packets the latest 10 day(s).
| Time | Temp. | Humidity | Pressure | Rain* | Wind** | Luminosity | Snow |
|---|---|---|---|---|---|---|---|
| 1777818635 | 12.22° C | 78% | 0 hPa | 0 mm | - | - | - |
| 1777817736 | 11.67° C | 79% | 0 hPa | 0 mm | - | - | - |
| 1777817436 | 11.67° C | 78% | 0 hPa | 0 mm | - | - | - |
| 1777817136 | 11.67° C | 80% | 0 hPa | 0 mm | - | - | - |
| 1777816836 | 11.11° C | 83% | 0 hPa | 0 mm | - | - | - |
| 1777816536 | 11.11° C | 82% | 0 hPa | 0 mm | - | - | - |
| 1777816236 | 10.56° C | 81% | 0 hPa | 0 mm | - | - | - |
| 1777815336 | 10° C | 86% | 0 hPa | 0 mm | - | - | - |
| 1777815035 | 10° C | 86% | 0 hPa | 0 mm | - | - | - |
| 1777814736 | 9.44° C | 87% | 0 hPa | 0 mm | - | - | - |
| 1777813537 | 8.33° C | 88% | 0 hPa | 0 mm | - | - | - |
| 1777812637 | 7.78° C | 90% | 0 hPa | 0 mm | - | - | - |
| 1777811737 | 7.22° C | 93% | 0 hPa | 0 mm | - | - | - |
| 1777811435 | 7.22° C | 93% | 0 hPa | 0 mm | - | - | - |
| 1777810837 | 6.67° C | 95% | 0 hPa | 0 mm | - | - | - |
| 1777810537 | 6.67° C | 95% | 0 hPa | 0 mm | - | - | - |
| 1777809937 | 6.11° C | 96% | 0 hPa | 0 mm | - | - | - |
| 1777808437 | 5° C | 97% | 0 hPa | 0 mm | - | - | - |
| 1777808137 | 5° C | 98% | 0 hPa | 0 mm | - | - | - |
| 1777807836 | 4.44° C | 98% | 0 hPa | 0 mm | - | - | - |
| 1777807237 | 4.44° C | 99% | 0 hPa | 0 mm | - | - | - |
| 1777806937 | 4.44° C | 100% | 0 hPa | 0 mm | - | - | - |
| 1777806337 | 3.89° C | 100% | 0 hPa | 0 mm | - | - | - |
| 1777805737 | 3.33° C | 100% | 0 hPa | 0 mm | - | - | - |
| 1777805437 | 3.33° C | 100% | 0 hPa | 0 mm | - | - | - |
* Rain latest hour (hover to see other rain measurements)
** Current wind speed in m/s (hover to see current wind gust speed)